Terminal Aerodrome Forecast
Issued by NWS

Home | Current Version | Previous Version | Graphics & Text | Print | Product List | Glossary Off
Versions: 1 2 3 4 5 6 7 8 9 10 11 12 13 14 15 16 17 18 19 20 21 22 23 24 25 26 27 28 29 30 31 32 33 34

000
FTUS43 KDDC 121141
TAFHYS
TAF
KHYS 121141Z 1212/1312 01010KT P6SM SCT250
     FM121400 01008KT P6SM BKN020
     FM121700 06011KT P6SM OVC040
     FM130600 09010KT 5SM -FZDZ SCT015 BKN020=

USA.gov is the U.S. government's official web portal to all federal, state and local government web resources and services.